Date String (YYYY-MM-DD hh:mm:ss) UTC,Instrument flags,Ambient pressure (hPa),Sample flow (lpm),Bypass flow (lpm),Sample temperature (°C),Ambient temperature (°C),ASC tube jacket temperature (°C),LED temperature (°C),Box temperature (°C),Sample RH (%),Span deviation,Mass concentration (μg/m³),Mass concentration (μg/m³),Mass concentration (μg/m³)
DateTimeUTC,F1_M11,P_M11,Q1_M11,Q2_M11,T1_M11,T2_M11,T3_M11,T4_M11,T5_M11,U1_M11,ZSPAN_M11,X0_M11,X2_M11,X1_M11
2022-03-23 07:00:00,,0828.7,5.00,0.00,21.9,22.5,00.0,30.9,23.8,08.3,0000.0,0001.51,0000.68,0000.41
2022-03-23 07:01:00,,0828.7,5.02,0.00,22.1,23.0,00.0,30.9,24.1,08.2,0000.0,0001.62,0000.69,0000.41
2022-03-23 07:02:00,,0828.7,4.99,0.00,22.1,22.8,00.0,31.0,24.1,08.1,0000.0,0001.66,0000.71,0000.41
2022-03-23 07:03:00,,0828.8,5.00,0.00,22.2,22.6,00.0,31.0,24.0,08.0,0000.0,0001.65,0000.70,0000.41
2022-03-23 07:04:00,,0828.7,5.00,0.00,22.1,22.3,00.0,31.0,24.0,07.9,0000.0,0001.63,0000.69,0000.41
2022-03-23 07:05:00,,0828.7,5.02,0.00,22.1,22.1,00.0,31.0,23.9,07.9,0000.0,0001.58,0000.70,0000.41
2022-03-23 07:06:00,,0828.7,4.99,0.00,22.1,21.8,00.0,31.0,23.9,08.0,0000.0,0002.09,0000.67,0000.41
2022-03-23 07:07:00,,0828.7,5.01,0.00,22.1,21.6,00.0,31.0,23.8,08.1,0000.0,0003.20,0000.68,0000.41
2022-03-23 07:08:00,,0828.7,4.99,0.00,22.0,21.5,00.0,31.0,23.7,08.0,0000.0,0003.26,0000.72,0000.42
2022-03-23 07:09:00,,0828.7,4.99,0.00,22.0,21.3,00.0,31.0,23.6,07.9,0000.0,0003.22,0000.72,0000.42
2022-03-23 07:10:00,,0828.7,5.00,0.00,21.9,21.2,00.0,31.0,23.5,08.0,0000.0,0003.16,0000.73,0000.43
2022-03-23 07:11:00,,0828.6,5.00,0.00,21.9,21.1,00.0,31.0,23.5,08.0,0000.0,0003.12,0000.73,0000.43
2022-03-23 07:12:00,,0828.7,5.00,0.00,21.8,21.0,00.0,31.0,23.4,08.0,0000.0,0003.02,0000.71,0000.44
2022-03-23 07:13:00,,0828.5,5.00,0.00,21.7,20.9,00.0,30.9,23.3,08.0,0000.0,0002.92,0000.68,0000.44
2022-03-23 07:14:00,,0828.8,4.99,0.00,21.7,20.7,00.0,30.9,23.2,08.0,0000.0,0003.09,0000.73,0000.44
2022-03-23 07:15:00,,0828.6,4.99,0.00,21.6,20.6,00.0,30.8,23.1,08.0,0000.0,0003.23,0000.76,0000.44
2022-03-23 07:16:00,,0828.7,5.00,0.00,21.5,20.5,00.0,30.8,23.1,08.0,0000.0,0003.23,0000.75,0000.44
2022-03-23 07:17:00,,0828.8,5.00,0.00,21.5,20.7,00.0,30.8,23.1,08.0,0000.0,0002.90,0000.79,0000.44
2022-03-23 07:18:00,,0828.7,4.99,0.00,21.6,21.5,00.0,30.8,23.4,08.0,0000.0,0001.55,0000.75,0000.44
2022-03-23 07:19:00,,0828.6,5.01,0.00,21.8,22.4,00.0,30.8,23.7,07.8,0000.0,0001.36,0000.71,0000.44
2022-03-23 07:20:00,,0828.9,5.01,0.00,21.9,23.1,00.0,30.9,23.9,07.7,0000.0,0001.39,0000.73,0000.45
2022-03-23 07:21:00,,0828.7,5.00,0.00,22.0,22.8,00.0,30.9,23.9,07.7,0000.0,0001.49,0000.74,0000.45
2022-03-23 07:22:00,,0828.6,5.00,0.00,22.0,22.4,00.0,30.9,23.8,07.7,0000.0,0001.56,0000.75,0000.45
2022-03-23 07:23:00,,0828.6,4.99,0.00,21.9,22.0,00.0,30.9,23.6,07.7,0000.0,0001.56,0000.76,0000.46
2022-03-23 07:24:00,,0828.6,5.02,0.00,21.9,21.7,00.0,30.9,23.5,07.8,0000.0,0001.69,0000.81,0000.46
2022-03-23 07:25:00,,0828.9,4.99,0.00,21.9,21.5,00.0,30.9,23.5,07.8,0000.0,0001.60,0000.79,0000.48
2022-03-23 07:26:00,,0828.6,5.00,0.00,21.8,21.3,00.0,30.9,23.5,07.8,0000.0,0001.52,0000.78,0000.49
2022-03-23 07:27:00,,0829.0,4.99,0.00,21.8,21.2,00.0,30.9,23.4,07.8,0000.0,0001.55,0000.81,0000.50
2022-03-23 07:28:00,,0829.0,5.01,0.00,21.8,21.2,00.0,30.9,23.4,07.8,0000.0,0001.50,0000.80,0000.51
2022-03-23 07:29:00,,0828.7,5.01,0.00,21.8,21.1,00.0,30.8,23.4,07.8,0000.0,0001.67,0000.88,0000.52
2022-03-23 07:30:00,,0829.0,5.00,0.00,21.7,21.1,00.0,30.8,23.4,07.8,0000.0,0001.79,0000.92,0000.53
2022-03-23 07:31:00,,0829.0,5.00,0.00,21.7,21.0,00.0,30.8,23.3,07.9,0000.0,0001.79,0000.92,0000.53
2022-03-23 07:32:00,,0829.2,4.99,0.00,21.7,21.0,00.0,30.8,23.3,07.9,0000.0,0001.78,0000.93,0000.52
2022-03-23 07:33:00,,0828.9,4.99,0.00,21.7,20.9,00.0,30.8,23.3,07.9,0000.0,0001.80,0000.93,0000.52
2022-03-23 07:34:00,,0829.0,5.00,0.00,21.7,20.9,00.0,30.8,23.3,07.9,0000.0,0001.81,0000.93,0000.52
2022-03-23 07:35:00,,0828.7,5.01,0.00,21.6,20.9,00.0,30.8,23.3,07.9,0000.0,0001.69,0000.89,0000.52
2022-03-23 07:36:00,,0828.8,5.00,0.00,21.6,20.8,00.0,30.8,23.2,07.9,0000.0,0001.60,0000.85,0000.51
2022-03-23 07:37:00,,0828.6,4.99,0.00,21.6,20.7,00.0,30.7,23.2,08.0,0000.0,0001.58,0000.84,0000.51
2022-03-23 07:38:00,,0828.4,5.00,0.00,21.5,20.8,00.0,30.7,23.2,08.0,0000.0,0001.52,0000.81,0000.51
2022-03-23 07:39:00,,0828.4,5.00,0.00,21.6,21.4,00.0,30.7,23.3,07.9,0000.0,0001.56,0000.81,0000.51
2022-03-23 07:40:00,,0828.5,5.01,0.00,21.8,22.4,00.0,30.8,23.7,07.9,0000.0,0001.42,0000.75,0000.50
2022-03-23 07:41:00,,0828.5,5.01,0.00,21.9,23.0,00.0,30.8,24.0,07.8,0000.0,0001.31,0000.72,0000.49
2022-03-23 07:42:00,,0828.5,4.99,0.00,22.0,22.8,00.0,30.8,24.0,07.8,0000.0,0001.33,0000.74,0000.49
2022-03-23 07:43:00,,0828.4,5.00,0.00,22.1,22.6,00.0,30.9,24.0,07.8,0000.0,0001.28,0000.71,0000.48
2022-03-23 07:44:00,,0828.4,4.99,0.00,22.1,22.3,00.0,30.9,23.9,07.8,0000.0,0001.21,0000.70,0000.48
2022-03-23 07:45:00,,0828.4,4.99,0.00,22.1,22.0,00.0,30.9,23.9,07.8,0000.0,0002.78,0000.69,0000.48
2022-03-23 07:46:00,,0828.4,5.01,0.00,22.0,21.8,00.0,30.9,23.8,07.8,0000.0,0003.47,0000.74,0000.47
2022-03-23 07:47:00,,0828.4,5.00,0.00,22.0,21.7,00.0,30.9,23.7,07.9,0000.0,0003.54,0000.76,0000.47
2022-03-23 07:48:00,,0828.4,4.98,0.00,22.0,21.5,00.0,30.9,23.6,07.9,0000.0,0003.56,0000.77,0000.47
2022-03-23 07:49:00,,0828.4,5.00,0.00,21.9,21.4,00.0,30.9,23.6,07.9,0000.0,0003.55,0000.76,0000.46
2022-03-23 07:50:00,,0828.5,5.00,0.00,21.9,21.2,00.0,30.9,23.5,07.9,0000.0,0003.53,0000.76,0000.46
2022-03-23 07:51:00,,0828.4,5.00,0.00,21.8,21.1,00.0,30.9,23.4,08.0,0000.0,0003.78,0000.74,0000.46
2022-03-23 07:52:00,,0828.4,5.01,0.00,21.8,21.0,00.0,30.9,23.4,08.0,0000.0,0004.63,0000.74,0000.46
2022-03-23 07:53:00,,0828.4,5.01,0.00,21.8,21.0,00.0,30.9,23.4,08.1,0000.0,0004.65,0000.73,0000.45
2022-03-23 07:54:00,,0828.4,5.00,0.00,21.7,21.0,00.0,30.8,23.4,08.1,0000.0,0004.72,0000.76,0000.45
2022-03-23 07:55:00,,0828.4,5.00,0.00,21.7,20.9,00.0,30.8,23.4,08.1,0000.0,0005.08,0000.75,0000.46
2022-03-23 07:56:00,,0828.4,4.99,0.00,21.7,20.9,00.0,30.8,23.4,08.1,0000.0,0003.80,0000.75,0000.47
2022-03-23 07:57:00,,0828.4,5.00,0.00,21.7,20.9,00.0,30.8,23.3,08.2,0000.0,0003.11,0000.72,0000.47
2022-03-23 07:58:00,,0828.4,4.99,0.00,21.7,20.8,00.0,30.8,23.3,08.1,0000.0,0003.06,0000.70,0000.47
2022-03-23 07:59:00,,0828.4,4.99,0.00,21.6,20.8,00.0,30.8,23.2,08.2,0000.0,0003.19,0000.73,0000.46
